EW3317 Weather Reports


time (UTC)temp
F
wind
direction
speed
knots
gust
knots
rain 1hr
in
rain 24hr
in
rain mn
in
humidity
%
barometer
mb
20260502151529 61 354 4.3 12.2 0.00 0.00 0.00 22 1018.9
20260502130105 47 30 2.6 9.6 0.00 0.00 0.00 39 1019.8
20260502123059 42 10 7.8 12.2 0.00 0.00 0.00 45 1019.9
20260502121549 44 4 8.7 13.9 0.00 0.00 0.00 42 1019.8
20260502114548 45 4 6.1 10.4 0.00 0.00 0.00 38 1020.0
20260502113043 45 9 6.1 10.4 0.00 0.00 0.00 39 1020.0
20260502111547 46 4 6.1 9.6 0.00 0.00 0.00 38 1020.2
20260502110042 45 4 4.3 10.4 0.00 0.00 0.00 39 1020.4
20260502104537 45 18 0.9 5.2 0.00 0.00 0.00 40 1020.5
20260502103037 44 21 0.9 5.2 0.00 0.00 0.00 41 1020.6
20260502101532 43 22 0.0 3.5 0.00 0.00 0.00 44 1020.6
20260502091528 42 44 0.0 1.7 0.00 0.00 0.00 45 1020.4
20260502071514 42 4 3.5 7.8 0.00 0.00 0.00 50 1021.8
20260502070012 41 15 3.5 7.0 0.00 0.00 0.00 53 1022.0
20260502064519 41 15 0.0 3.5 0.00 0.00 0.00 52 1022.1
20260502063008 42 15 3.5 7.8 0.00 0.00 0.00 50 1022.1
20260502061505 42 21 1.7 7.8 0.00 0.00 0.00 51 1022.1
20260502060002 42 8 2.6 7.0 0.00 0.00 0.00 53 1022.2
20260502054502 42 8 4.3 7.8 0.00 0.00 0.00 52 1022.2
20260502053001 42 11 2.6 5.2 0.00 0.00 0.00 53 1022.3
20260502051500 42 10 2.6 7.0 0.00 0.00 0.00 54 1022.4
20260502050100 42 4 2.6 4.3 0.00 0.00 0.00 54 1022.4
20260502044600 43 4 0.9 7.0 0.00 0.00 0.00 52 1022.4
20260502043107 43 4 2.6 4.3 0.00 0.00 0.00 53 1022.4
20260502041559 45 8 4.3 8.7 0.00 0.00 0.00 49 1022.5
20260502040058 43 11 0.9 4.3 0.00 0.00 0.00 54 1022.4
20260502034558 43 11 1.7 3.5 0.00 0.00 0.00 53 1022.4
20260502033057 44 11 0.9 3.5 0.00 0.00 0.00 50 1022.4
20260502031600 45 359 0.0 4.3 0.00 0.00 0.00 50 1022.2
20260502030057 47 349 1.7 3.5 0.00 0.00 0.00 47 1022.0
20260502024557 49 348 0.0 4.3 0.00 0.00 0.00 43 1021.8
20260502023056 50 226 0.9 2.6 0.00 0.00 0.00 39 1021.5
20260502021556 50 102 0.0 1.7 0.00 0.00 0.00 42 1021.5
20260502020055 51 93 0.0 0.9 0.00 0.00 0.00 41 1021.3
20260502014600 53 93 0.0 3.5 0.00 0.00 0.00 37 1021.2
20260502013057 54 106 0.0 1.7 0.00 0.00 0.00 36 1021.1
20260502011554 53 85 0.0 0.9 0.00 0.00 0.00 38 1021.1
20260502010059 55 84 0.0 3.5 0.00 0.00 0.00 34 1021.1
20260502004600 56 95 0.0 3.5 0.00 0.00 0.00 30 1021.0
20260502003052 57 56 1.7 8.7 0.00 0.00 0.00 29 1021.0
20260502001551 57 73 0.0 1.7 0.00 0.00 0.00 29 1021.1
20260501234551 58 59 0.9 4.3 0.00 0.00 0.00 28 1021.2
20260501233051 59 101 0.0 3.5 0.00 0.00 0.00 27 1021.1
20260501231551 58 170 0.0 2.6 0.00 0.00 0.00 28 1021.1
20260501230049 58 88 0.0 0.9 0.00 0.00 0.00 29 1021.1
20260501224548 58 81 0.0 6.1 0.00 0.00 0.00 29 1021.1
20260501223047 58 147 0.0 5.2 0.00 0.00 0.00 27 1021.1
20260501221547 58 108 0.0 7.0 0.00 0.00 0.00 28 1021.0
20260501220054 59 103 0.0 3.5 0.00 0.00 0.00 26 1021.2
20260501214545 60 25 0.0 7.8 0.00 0.00 0.00 26 1021.3
20260501213041 59 35 0.9 7.0 0.00 0.00 0.00 28 1021.4
20260501211541 58 146 0.0 1.7 0.00 0.00 0.00 27 1021.6
20260501210039 58 230 1.7 7.8 0.00 0.00 0.00 28 1021.8
20260501204538 59 223 0.0 6.1 0.00 0.00 0.00 28 1021.8
20260501203036 58 224 0.0 7.8 0.00 0.00 0.00 28 1021.8
20260501201532 56 271 0.0 7.0 0.00 0.00 0.00 29 1022.0
20260501200029 55 312 3.5 11.3 0.00 0.00 0.00 31 1022.2
20260501194533 55 342 0.0 5.2 0.00 0.00 0.00 31 1022.3
20260501193028 55 287 6.1 9.6 0.00 0.00 0.00 30 1022.3
20260501191527 56 320 1.7 5.2 0.00 0.00 0.00 30 1022.4
20260501190027 56 359 1.7 5.2 0.00 0.00 0.00 30 1022.5
20260501184526 56 297 3.5 7.0 0.00 0.00 0.00 29 1022.5
20260501183031 56 190 0.0 3.5 0.00 0.00 0.00 31 1022.6
20260501181522 55 303 0.0 7.8 0.00 0.00 0.00 31 1022.7
20260501180029 55 157 0.9 5.2 0.00 0.00 0.00 31 1022.6
20260501174524 54 149 0.0 4.3 0.00 0.00 0.00 32 1022.7
20260501173018 54 195 2.6 7.8 0.00 0.00 0.00 32 1022.7
20260501171519 53 147 2.6 9.6 0.00 0.00 0.00 31 1022.8
20260501170017 53 147 0.0 7.0 0.00 0.00 0.00 34 1022.8
20260501164517 54 143 0.0 7.8 0.00 0.00 0.00 32 1022.8
20260501163014 55 49 0.0 9.6 0.00 0.00 0.00 31 1022.9
20260501161511 53 343 0.0 9.6 0.00 0.00 0.00 31 1022.9
20260501160012 53 136 0.0 7.8 0.00 0.00 0.00 31 1023.0
20260501154506 53 46 1.7 5.2 0.00 0.00 0.00 31 1023.0
20260501153113 52 37 1.7 4.3 0.00 0.00 0.00 32 1022.9